Home   Weather   Bhinga   Past weeks

Flag for India Past Weather in Bhinga, Uttar Pradesh, India — Yesterday and Last 2 Weeks

Now
79 °F

Passing clouds.


Feels Like: 83 °F
Forecast: 74 / 89 °F
Wind: 2 mph from North

Location: Lucknow / Amausi

Current Time: Sep 25, 2016 at 2:33:49 AM

Latest Report: Sep 25, 2016 at 2:00 AM


Visibility: 2 mi

Pressure: 29.62 "Hg

Humidity: 94%

Dew Point: 77 °F

Location of BhingaLocation

Past Weather in Bhinga — Graph

°F

Bhinga Temperature Yesterday

Maximum temperature yesterday: 90 °F (at 2:00 PM)
Minimum temperature yesterday: 77 °F (at 2:00 AM)
Average temperature yesterday: 82 °F

High & Low Weather Summary for the Past Weeks

 TemperatureHumidityPressure
High99 °F (Sep 11, 2:30 PM)100% (Sep 10, 7:30 AM)29.83 "Hg (Sep 10, 7:30 AM)
Low77 °F (Sep 14, 12:00 AM)53% (Sep 11, 2:30 PM)29.53 "Hg (Sep 20, 4:30 PM)
Average86 °F86%29.67 "Hg
* Reported Sep 10 12:00 AM — Sep 25 12:00 AM, Bhinga, Weather by CustomWeather, © 2016

Note: Actual official high and low records may vary slightly from our data, if they occured in-between our weather recording intervals... More about our weather records

Advertising

Bhinga Weather History for the Previous 24 Hours

Scroll right to see more
 ConditionsComfort  
Time TempWeatherWind HumidityBarometerVisibility
12:00 AM
Sun, Sep 25
79 °FPartly cloudy.No wind94%29.65 "Hg2 mi
10:00 PM
Sat, Sep 24
81 °FPassing clouds.No wind94%29.65 "Hg2 mi
9:00 PM81 °FPassing clouds.2 mph94%29.65 "Hg2 mi
8:30 PM81 °FPassing clouds.No wind94%29.65 "Hg2 mi
8:00 PM81 °FPassing clouds.No wind94%29.62 "Hg2 mi
7:30 PM81 °FPassing clouds.No wind94%29.62 "Hg2 mi
7:00 PM81 °FPassing clouds.2 mph89%29.62 "Hg3 mi
6:30 PM82 °FPassing clouds.2 mph84%29.62 "Hg3 mi
6:00 PM82 °FScattered clouds.2 mph84%29.59 "Hg3 mi
5:30 PM86 °FScattered clouds.6 mph70%29.59 "Hg3 mi
5:00 PM86 °FScattered clouds.7 mph70%29.56 "Hg3 mi
3:00 PM88 °FBroken clouds.7 mph66%29.59 "Hg3 mi
2:30 PM88 °FBroken clouds.6 mph84%29.59 "Hg3 mi
2:00 PM90 °FBroken clouds.6 mph75%29.59 "Hg3 mi
1:30 PM88 °FBroken clouds.7 mph79%29.62 "Hg3 mi
1:00 PM88 °FBroken clouds.3 mph84%29.65 "Hg2 mi
11:30 AM84 °FBroken clouds.5 mph89%29.68 "Hg2 mi
11:00 AM84 °FBroken clouds.5 mph89%29.71 "Hg2 mi
10:30 AM84 °FBroken clouds.3 mph89%29.71 "Hg2 mi
10:00 AM84 °FBroken clouds.3 mph89%29.71 "Hg2 mi
9:30 AM84 °FBroken clouds.2 mph84%29.71 "Hg2 mi
9:00 AM82 °FBroken clouds.2 mph89%29.71 "Hg2 mi
8:30 AM81 °FFog.2 mph94%29.71 "Hg1 mi
8:00 AM81 °FFog.No wind94%29.68 "Hg1 mi
7:30 AM79 °FFog.No wind94%29.68 "Hg1 mi
7:00 AM77 °FFog.No wind94%29.68 "Hg1 mi
6:30 AM77 °FFog.2 mph94%29.65 "Hg1 mi
6:00 AM77 °FFog.3 mph94%29.65 "Hg1 mi
5:30 AM77 °FPassing clouds.5 mph94%29.65 "Hg2 mi
5:00 AM77 °FPassing clouds.6 mph94%29.65 "Hg2 mi
4:00 AM77 °FPartly cloudy.No wind100%29.65 "Hg2 mi
3:00 AM77 °FPartly cloudy.No wind100%29.65 "Hg2 mi
2:00 AM77 °FPartly cloudy.No wind94%29.62 "Hg2 mi
Weather by CustomWeather, © 2016

See weather overviewHow to use our weather pages